Regional Weather Roundup
Issued by NWS Midland/Odessa, TX

Skip options and go directly to product.
Home | Oldest Version | Previous Version | Current Version | All | Text Only | Save Text | Print | Product List | Glossary On

Skip product version selection by date and time.   
194
ASUS44 KMAF 192110
RWRMAF
MIDLAND AREA WEATHER ROUNDUP
NATIONAL WEATHER SERVICE MIDLAND TX
400 PM CDT SUN APR 19 2015

...IN SOUTHWEST TEXAS AND SOUTHEAST NEW MEXICO...

CITY           SKY/WX    TMP DP  RH WIND       PRES   REMARKS
ALPINE         MOSUNNY   73  31  21 NE8G17    30.03F
ANDREWS        FAIR      72  33  24 N16G24    29.95F
ARTESIA        SUNNY     70  30  23 N6G18     29.98F
BIG SPRING     MOSUNNY   75  34  22 NW16G30   29.94F
CARLSBAD       SUNNY     76  29  17 N8G17     29.94F
DRYDEN           N/A     85  35  16 SE10      29.84F
FORT STOCKTON  SUNNY     78  33  19 NE13G18   29.93F
GUAD PASS      MOSUNNY   64  31  28 NE18      30.02F
HOBBS          MOSUNNY   68  32  26 N14G21    29.99F
MARFA          NOT AVBL
MIDLAND AIRPK  SUNNY     75  33  21 N16G22    29.94F HAZE
MIDLAND INTL   SUNNY     75  34  22 N20G28    29.93F
ODESSA         SUNNY     77  29  17 N18G28    29.94F
PECOS          SUNNY     78  33  19 E6        29.91F
PRESIDIO       FAIR      84  22  10 W9        29.88F
SEMINOLE       MOSUNNY   70  35  27 N18G24    29.97F
SNYDER         MOSUNNY  N/A N/A N/A NW21      29.93S
WINK           SUNNY     77  26  15 VRB6G24   29.92F
$$
...OTHER STATIONS IN TEXAS...

CITY           SKY/WX    TMP DP  RH WIND       PRES   REMARKS
ABILENE        SUNNY     76  43  30 NW21G29   29.85S
AMARILLO       PTSUNNY   58  37  45 N25G37    30.00F
AUSTIN         MOSUNNY   88  50  27 W15G21    29.72F
BROWNSVILLE    PTSUNNY   85  75  72 SE10      29.75F
CORPUS CHRISTI CLOUDY    81  73  76 S6        29.76F
DALLAS FTW     MOSUNNY   74  55  51 W18G26    29.74S
DEL RIO        SUNNY     89  37  16 NW13G21   29.78F
EL PASO        MOSUNNY   80  18  10 W8G20     29.93F
HOUSTON INT    MOSUNNY   86  67  52 VRB5      29.72F
LUBBOCK        CLOUDY    62  36  37 N25       29.97R
SAN ANGELO     SUNNY     79  39  23 NW10G29   29.86F
SAN ANTONIO    MOSUNNY   88  57  34 SW7       29.76F
WACO           SUNNY     80  55  42 W14G24    29.75F
WICHITA FALLS  NOT AVBL
$$
...OTHER LOCATIONS IN NEW MEXICO...

CITY           SKY/WX    TMP DP  RH WIND       PRES   REMARKS
ALAMAGORDO     MOSUNNY   75  21  13 N15       29.95F
ALBUQUERQUE    MOSUNNY   66  21  18 VRB3      30.00F
CANNON AFB     MOSUNNY   60  32  34 N16G30    30.03F
CLOVIS         MOSUNNY   61  32  33 N22G28    30.03F
HOLLOMAN AFB   NOT AVBL
ROSWELL        MOSUNNY   72  26  18 MISG      29.98F
RUIDOSO        PTSUNNY   55  27  33 SE20      30.07F
SANTA FE       MOSUNNY   62  16  16 VRB7      30.00F
TRUTH OR CONSE PTSUNNY   71  20  14 SE8G16    29.93F
TUCUMCARI      SUNNY     65  26  23 N18G26    30.00F
$$

USA.gov is the U.S. government's official web portal to all federal, state and local government web resources and services.